• MPC Preparation (Info)

  • MPEC 2000-X49 : 2000 XO8

    The following Minor Planet Electronic Circular may be linked-to from your own Web pages, but must not otherwise be redistributed electronically.

    A form allowing access to any MPEC is at the bottom of this page.


    Read MPEC 2000-X48 Read MPEC 2000-Y01


    M.P.E.C. 2000-X49                                Issued 2000 Dec. 15, 23:37 UT
    
         The Minor Planet Electronic Circulars contain information on unusual
             minor planets and routine data on comets.  They are published
       on behalf of Commission 20 of the International Astronomical Union by the
              Minor Planet Center, Smithsonian Astrophysical Observatory,
                              Cambridge, MA 02138, U.S.A.
    
                 Prepared using the Tamkin Foundation Computer Network
    
                                  MPC@CFA.HARVARD.EDU
              URL http://cfa-www.harvard.edu/iau/mpc.html  ISSN 1523-6714
    
                                       2000 XO8
    
    Additional observations:
         K00X08O  C2000 11 20.43982 07 25 27.05 +31 16 56.3          18.5        704
         K00X08O  C2000 11 20.45455 07 25 26.93 +31 17 07.7          18.9        704
         K00X08O  C2000 11 20.46955 07 25 26.78 +31 17 19.3          19.0        704
         K00X08O  C2000 11 20.48429 07 25 26.68 +31 17 30.6          18.9        704
         K00X08O  C2000 11 20.49903 07 25 26.63 +31 17 42.3          19.0        704
         K00X08O  C2000 12 06.36991 07 17 55.55 +34 44 33.2          18.3        704
         K00X08O  C2000 12 06.38509 07 17 54.75 +34 44 44.1          18.1        704
         K00X08O  C2000 12 06.40069 07 17 53.88 +34 44 55.7          18.4        704
         K00X08O  C2000 12 06.41587 07 17 53.07 +34 45 06.7          18.3        704
         K00X08O  C2000 12 06.43106 07 17 52.28 +34 45 17.9          18.5        704
         K00X08O  C2000 12 07.15083 07 17 14.27 +34 54 01.3          18.0 R      046
         K00X08O  C2000 12 07.15189 07 17 14.20 +34 54 02.0                      046
         K00X08O  C2000 12 07.15284 07 17 14.18 +34 54 02.6                      046
         K00X08O  C2000 12 07.15396 07 17 14.13 +34 54 03.3                      046
         K00X08O  C2000 12 07.15491 07 17 14.06 +34 54 04.1                      046
         K00X08O  C2000 12 08.29419 07 16 12.28 +35 07 46.5          18.0        704
         K00X08O  C2000 12 08.30944 07 16 11.41 +35 07 57.5          18.8        704
         K00X08O  C2000 12 08.32470 07 16 10.47 +35 08 09.0          18.6        704
         K00X08O  C2000 12 08.34000 07 16 09.53 +35 08 20.0          18.5        704
         K00X08O  C2000 12 11.89667 07 12 35.60 +35 49 09.2                      557
         K00X08O  C2000 12 11.89895 07 12 35.47 +35 49 10.2                      557
         K00X08O  C2000 12 11.90353 07 12 35.10 +35 49 13.7                      557
    
    Observer details:
    046 Klet.  Observer M. Tichy.  0.57-m f/5.2 reflector + CCD.
    557 Ondrejov.  Observer L. Sarounova.  0.65-m f/3.6 reflector + CCD.
    704 Lincoln Laboratory ETS, New Mexico.  Observers M. Blythe, F. Shelly,
        M. Bezpalko, R. Huber, L. Manguso, S. Adams.  Measurers J. Stuart,
        R. Sayer, J. B. Evans, H. Viggh.  1.0-m f/2.15 reflector + CCD.
    
    Orbital elements:
    2000 XO8
    Epoch 2000 Nov. 12.0 TT = JDT 2451860.5                 Spahr
    M   9.56059              (2000.0)            P               Q
    n   0.11637730     Peri.  325.02485     +0.90483443     -0.38654508
    a   4.1548676      Node    58.67807     +0.42249747     +0.76335880
    e   0.6619744      Incl.   12.06009     +0.05263591     +0.51755796
    P   8.47           H   16.2           G   0.15
    From 29 observations 2000 Nov. 20-Dec. 11.
    
    Ephemeris:
    2000 XO8                 a,e,i = 4.15, 0.66, 12                  q = 1.4045
    Date    TT    R. A. (2000) Decl.     Delta      r     Elong.  Phase     V
    2000 12 12    07 12.48   +35 50.3    0.963    1.890   152.1    14.1    18.3
    2000 12 22    07 00.53   +37 26.8    1.004    1.961   161.2     9.3    18.3
    2001 01 01    06 47.65   +38 29.8    1.068    2.033   164.5     7.4    18.4
    2001 01 11    06 36.23   +38 58.7    1.157    2.106   159.3     9.5    18.8
    2001 01 21    06 27.92   +38 59.4    1.269    2.180   150.4    12.9    19.2
    2001 01 31    06 23.49   +38 40.8    1.402    2.254   140.9    16.0    19.6
    2001 02 10    06 22.98   +38 10.6    1.553    2.329   131.6    18.5    19.9
    2001 02 20    06 25.95   +37 34.4    1.720    2.403   122.7    20.3    20.3
    2001 03 02    06 31.82   +36 55.2    1.899    2.477   114.3    21.4    20.6
    2001 03 12    06 40.03   +36 14.4    2.087    2.552   106.4    21.9    20.9
    2001 03 22    06 50.03   +35 32.3    2.282    2.625    98.8    22.0    21.2
    2001 04 01    07 01.41   +34 48.8    2.481    2.698    91.5    21.7    21.4
    2001 04 11    07 13.79   +34 03.8    2.682    2.771    84.5    21.1    21.6
    
    Timothy B. Spahr             (C) Copyright 2000 MPC           M.P.E.C. 2000-X49
    

    Read MPEC 2000-X48 Read MPEC 2000-Y01


    MPEC number:

    Enter an MPEC number in one of the following forms:

    • 1997-B01 (the full form)
    • J97B01 (the packed version of the full form)
    • B01 (the abbreviated form)